Torna al catalogo

STARLINK-37518

AttivoComunicazioniVLEO
NORAD 69259·PAYLOAD·🇺🇸 United States

Lanciato May 29, 2026 da Cape Canaveral Space Force Station

Loading…

Prossimi Passaggi (prossime 24 ore)

TLE

AggiornatoSource: CelesTrak SupGP

Epoca: Sep 14, 2026, 21:28 UTC

1 69259C 26117X   26257.89493056 -.00015516  00000+0 -45831-3 0  2574
2 69259  53.1579 180.2457 0001269  87.9158 221.8910 15.34406505    13

Traccia STARLINK-37518 in tempo reale con AllMySat

Download on the App Store